GFSSE_con_lsi_000.txt.gz
Lid_Strength_Index
1 -0 -1 -2 -2 -2 -2 -1 -2 -2 -2 -2 -1 -2 -2 -2 -2 -1 -1 -1 -1 -1 -1 -2 -1 -2 -2 -2 -2 -2 -2 -1 -1 -1 -1 -1 -1 -1 -2 -2 -2 -1 -1
0 -1 -1 -1 -1 -2 -2 -2 -2 -2 -2 -2 -1 -2 -2 -2 -2 -2 -2 -2 -1 -2 -2 -2 -2 -2 -2 -2 -2 -2 -1 -1 -1 -1 -1 -2 -1 -2 -2 -2 -1 -1 -1
0 -1 -1 -1 -1 -2 -2 -2 -2 -1 -1 -1 -1 -1 -2 -2 -2 -2 -2 -2 -1 -1 -2 -2 -2 -2 -2 -2 -2 -2 -2 -1 -1 -1 -2 -1 -1 -1 -1 -1 -1 -1 -1
-0 -1 -1 -1 -1 -1 -1 -1 -1 -1 -1 -1 -1 -1 -1 -2 -2 -2 -2 -2 -2 -2 -2 -2 -2 -2 -2 -2 -2 -2 -2 -1 -1 -1 -1 -0 -1 -1 -1 -1 -1 -2 -1
-1 -1 -1 -1 -1 -1 -1 -1 -1 -1 -1 -1 -1 -1 -2 -2 -2 -2 -2 -2 -2 -2 -2 -2 -2 -2 -2 -2 -2 -2 -2 -1 -1 -1 -0 -0 -0 -1 -2 -1 -1 -1 -1
-0 -1 -1 -1 -1 -1 -1 -1 -1 -1 -1 -2 -2 -2 -2 -2 -2 -2 -2 -2 -2 -2 -2 -2 -2 -2 -2 -2 -2 -2 -2 -1 -1 -0 -0 -1 -0 -1 -2 -2 -1 -1 -1
-2 -1 -1 -2 -1 -1 -1 -1 -1 -1 -1 -1 -1 -1 -1 -1 -1 -2 -2 -2 -2 -2 -2 -2 -2 -2 -1 -2 -2 -2 -2 -1 -1 -0 -0 -0 -0 -1 -1 -2 -1 -1 -1
-1 -1 -1 -2 -2 -1 -1 -1 -1 -0 -0 -1 -1 -1 -1 -1 -1 -1 -2 -2 -2 -2 -2 -2 -2 -2 -2 -1 -2 -2 -2 -1 -1 -0 -0 -0 -0 -1 -1 -1 -1 -1 -1
-1 -1 -1 -2 -2 -2 -2 -1 -1 -1 -1 -1 -1 -1 -1 -1 -1 -2 -2 -2 -2 -2 -2 -2 -2 -2 -2 -2 -1 -2 -2 -1 -0 -0 -0 -0 -1 -1 -1 -1 -1 -1 -2
-0 -0 -1 -1 -2 -1 -1 -1 -1 -1 -1 -1 -1 -1 -1 -1 -2 -2 -2 -1 -2 -1 -1 -2 -2 -2 -2 -2 -2 -2 -2 -1 -0 -1 -0 -0 -1 -1 -1 -1 -1 -2 -1
0 -0 -0 -1 -1 -2 -2 -1 -1 -2 -1 -1 -1 -1 -1 -1 -1 -1 -1 -1 -2 -1 -1 -1 -2 -2 -2 -2 -2 -2 -1 -0 -0 -0 -0 -1 -1 -1 -2 -1 -1 -1 -2
1 -0 -1 -0 -0 -1 -1 -2 -2 -1 -2 -1 -1 -1 -1 -1 -1 -1 -1 -1 -1 -1 -1 -1 -1 -1 -1 -0 -0 -1 -0 -0 -0 -0 -0 -1 -1 -1 -2 -2 -2 -1 -1
1 -0 -0 -1 -1 -1 -0 -1 -1 -1 -1 -1 -1 -1 -1 -1 -1 -1 -1 -1 -1 -1 -1 -1 -1 -0 -0 -0 -0 -0 -0 -0 -0 -0 -1 -1 -1 -1 -2 -2 -2 -1 -1
1 -1 -1 -1 -1 -1 -1 -0 -0 -0 -1 -0 -1 -1 -0 -0 -0 -0 -0 -0 -0 -1 -0 -0 -0 -0 -0 -0 -0 -0 -0 -0 -0 0 -0 -1 -1 -1 -1 -1 -2 -2 -1
0 0 -1 -1 -1 -1 -1 -0 -0 -1 -0 -0 -0 -1 -1 -0 0 -0 -0 -0 -0 -0 -0 0 -0 0 0 -0 -0 0 0 0 -0 -0 -0 -1 -1 -1 -1 -2 -2 -1 -2
0 -1 -1 -1 -1 -1 -0 -0 -0 -0 -0 -1 -0 -0 -0 -0 0 0 0 0 -0 -1 -1 -0 0 0 0 0 0 0 0 -0 -0 -0 -0 -1 -1 -1 -1 -2 -1 -2 -2
0 -0 -1 -0 -0 -0 0 -0 -0 -0 -0 -0 -0 -1 -0 -1 -0 -0 0 0 -0 -1 -0 -0 -0 -0 0 0 1 0 -0 -0 -0 -0 -0 -0 -1 -1 -1 -1 -1 -2 -2
-0 0 -1 -0 -1 -1 -1 -0 -0 -0 -1 -0 -1 -1 -1 -1 -1 -0 0 0 -0 -0 -0 0 0 1 1 1 1 1 0 0 0 0 -0 -0 -0 -1 -1 -1 -1 -1 -2
0 -0 -0 -1 -0 -1 -0 0 -0 -0 -0 -1 -1 -0 -0 -1 -1 -0 0 -0 -0 0 0 0 1 1 2 1 1 1 1 1 0 -0 0 -0 -0 -0 -1 -1 -2 -2 -2
0 -0 -1 -0 -1 -1 0 0 0 -1 -0 -1 -0 -0 -1 -0 -1 -0 0 0 -0 0 1 1 1 1 1 1 1 1 1 1 0 0 0 -0 -0 -0 -1 0 -1 -1 -1
1 1 1 0 -1 -0 1 1 1 1 0 0 -0 -0 -0 -0 -0 -0 0 0 0 1 1 1 1 2 2 1 2 2 2 1 1 1 0 0 0 -0 -0 -0 -0 -0 -1
1 1 1 0 -1 -0 1 0 0 0 0 -0 -0 -0 -1 -0 -0 -0 0 0 0 1 1 1 1 2 2 1 3 3 5 4 2 1 1 1 0 -0 -0 -0 -0 -0 -0
2 1 1 0 -1 -1 -0 1 0 0 1 1 0 0 0 -1 -0 -0 -0 0 0 0 1 1 1 2 3 2 1 3 6 7 4 2 1 1 1 0 -0 -0 -0 -0 -0
2 1 1 0 -0 0 -0 1 1 2 3 1 1 0 1 -0 -0 -0 -0 0 0 0 1 1 1 1 2 3 2 1 2 3 6 6 2 2 1 1 0 -0 0 -0 -0
1 1 1 0 -0 -1 -1 0 1 2 1 1 1 1 1 0 -0 -0 -0 -0 0 0 0 1 1 1 1 2 2 3 2 2 2 4 6 4 2 1 0 0 0 0 -0
1 1 1 1 0 -0 -1 -1 0 1 2 2 2 2 1 1 0 -0 -0 -0 -0 0 0 0 0 1 1 1 1 2 3 4 4 4 5 4 4 2 1 0 0 1 0

GFSSE_con_lsi_003.txt.gz
Lid_Strength_Index
1 -0 -1 -2 -2 -2 -2 -2 -2 -2 -2 -2 -1 -1 -1 -1 -1 -1 -1 -1 -1 -1 -2 -2 -2 -1 -1 -1 -1 -2 -2 -1 -1 -2 -2 -1 -1 -1 -1 -2 -2 -1 -1
0 -0 -1 -1 -2 -2 -2 -2 -2 -2 -2 -2 -1 -1 -1 -1 -1 -1 -1 -1 -1 -1 -2 -2 -2 -2 -2 -1 -2 -2 -2 -1 -1 -1 -1 -1 -1 -1 -1 -2 -2 -1 -1
0 -0 -1 -1 -2 -2 -2 -2 -1 -1 -1 -1 -1 -1 -1 -1 -2 -1 -1 -1 -1 -2 -2 -2 -2 -2 -2 -2 -2 -2 -2 -2 -1 -1 -1 -1 -1 -1 -1 -2 -2 -1 -1
0 0 -0 -1 -1 -2 -2 -1 -1 -1 -1 -1 -1 -1 -1 -1 -2 -2 -1 -1 -1 -1 -2 -2 -2 -2 -2 -2 -2 -2 -2 -2 -1 -1 -0 -0 -1 -1 -1 -2 -1 -1 -1
0 -0 -0 -1 -1 -1 -1 -1 -1 -1 -1 -1 -1 -1 -1 -2 -1 -1 -1 -1 -2 -2 -2 -2 -2 -2 -2 -2 -2 -2 -2 -1 -1 -1 -0 0 -0 -1 -1 -2 -1 -1 -1
1 -0 -1 -1 -1 -1 -1 -1 -1 -1 -1 -1 -1 -1 -1 -2 -2 -2 -2 -2 -2 -2 -2 -2 -2 -2 -2 -2 -2 -2 -2 -1 -1 -0 -0 -0 -0 -1 -2 -1 -1 -2 -1
1 0 -0 -1 -1 -1 -1 -1 -1 -1 -1 -1 -1 -1 -1 -1 -1 -1 -1 -2 -2 -2 -2 -2 -2 -2 -2 -2 -1 -2 -2 -1 -0 -0 -0 -0 -0 -1 -2 -2 -2 -1 -1
1 0 0 -1 -1 -2 -2 -1 -1 -1 -0 -0 -1 -1 -1 -1 -1 -1 -2 -2 -2 -2 -2 -2 -2 -2 -2 -1 -1 -1 -2 -1 -1 -0 -0 1 -1 -1 -2 -2 -1 -1 -1
0 0 0 0 -1 -2 -2 -1 -1 -1 -1 -1 -1 -1 -1 -1 -1 -2 -2 -2 -2 -2 -2 -2 -2 -2 -2 -2 -1 -1 -2 -1 0 -0 -0 0 -1 -2 -2 -2 -1 -1 -1
1 1 0 0 0 0 0 -1 -1 -1 -1 -1 -1 -1 -1 -1 -1 -1 -2 -1 -2 -2 -2 -2 -2 -2 -2 -2 -2 -1 -1 -1 0 -0 0 -0 -1 -1 -1 -1 -1 -1 -1
2 2 2 2 2 1 0 -0 -1 -1 -1 -1 -1 -1 -1 0 0 -0 -1 -1 -2 -1 -2 -1 -1 -2 -2 -2 -2 -1 -1 -0 0 0 0 -1 -1 -1 -1 -1 -1 -1 -1
4 3 2 1 1 1 -0 1 1 0 1 1 0 1 1 1 1 -0 -1 -1 -1 -1 -1 -1 -1 -2 -1 1 0 -1 0 0 0 0 0 -1 -1 -1 -1 -2 -1 -2 -1
3 2 2 1 0 1 1 1 2 1 1 1 1 1 1 0 1 0 0 0 0 -1 0 -0 -0 0 1 1 1 0 0 0 0 0 -1 -1 -1 -1 -2 -1 -2 -2 -2
3 3 2 1 1 1 1 1 1 1 2 1 1 1 1 1 1 1 1 1 0 0 1 1 1 1 1 1 0 0 0 0 -0 0 -0 -1 -1 -1 -2 -2 -2 -2 -1
3 2 2 2 1 1 1 1 1 1 1 1 1 1 1 1 0 1 1 1 1 1 1 1 1 0 0 1 0 0 0 1 -0 0 0 -1 -1 -1 -1 -2 -2 -2 -1
3 3 2 2 1 1 1 1 1 1 1 1 1 1 0 0 0 1 1 1 1 1 1 1 0 1 1 2 0 0 0 0 0 0 0 -0 -1 -1 -1 -1 -2 -1 -2
3 2 2 2 2 1 1 2 1 1 1 1 1 1 0 -0 0 1 1 1 1 1 1 1 1 1 1 1 1 0 0 0 -0 0 0 -0 -0 -1 -1 -1 -2 -2 -2
3 2 2 1 2 1 1 2 1 1 1 1 1 1 0 -0 0 1 1 2 1 1 1 1 1 1 2 2 1 1 1 1 -0 0 -0 -0 -0 -0 -1 -1 -1 -1 -2
3 3 2 2 2 2 2 1 1 1 1 1 1 2 1 1 -0 1 1 1 1 1 1 1 1 1 2 2 1 1 1 2 0 -0 0 0 -0 -0 -0 -1 -1 -1 -1
2 2 2 2 2 2 2 1 2 2 2 1 1 2 1 1 -0 1 2 1 1 1 2 1 2 2 2 2 1 1 1 1 1 1 0 -0 -0 -0 -0 -0 -1 -1 -1
2 2 2 2 2 2 2 3 3 3 2 1 1 1 1 1 1 1 2 1 1 2 2 1 2 2 3 2 3 2 2 1 2 1 0 0 0 0 -0 -0 -0 0 0
3 2 2 2 2 2 2 2 2 2 1 1 1 1 1 1 0 1 1 2 1 2 2 2 2 3 3 2 3 4 6 4 2 1 1 1 1 0 -0 -0 0 -0 0
3 3 2 2 3 2 2 2 2 2 2 2 2 2 2 1 1 1 1 1 1 2 2 2 2 3 4 3 2 4 6 7 4 2 1 1 1 0 0 -0 0 -0 -1
3 2 2 2 2 2 2 2 3 3 4 2 2 2 1 1 1 1 1 1 1 1 2 2 1 2 2 3 3 2 3 3 6 6 2 2 1 1 1 0 0 -0 -0
2 3 3 3 2 2 2 2 3 3 2 2 2 2 2 1 1 0 1 1 2 2 2 1 2 2 1 3 3 3 3 3 2 5 6 4 2 1 1 0 0 -0 -0
3 3 3 3 3 2 2 3 2 2 2 2 3 2 2 1 2 1 1 1 1 2 2 2 1 2 1 2 3 3 3 4 4 4 5 4 4 2 1 0 1 0 -0

GFSSE_con_lsi_009.txt.gz
Lid_Strength_Index
1 0 -1 -1 -2 -2 -2 -2 -2 -2 -2 -2 -2 -2 -2 -2 -1 -1 -1 -1 -1 -1 -1 -1 -1 -1 -1 -1 -1 -1 -1 -1 -0 -1 -1 -1 -1 -1 -1 -1 -1 -1 -1
2 -0 -1 -1 -2 -2 -2 -2 -2 -2 -2 -2 -2 -2 -2 -1 -1 -1 -1 -1 -1 -1 -2 -2 -2 -2 -2 -1 -1 -1 -1 -1 -1 -1 -1 -1 -1 -1 -1 -1 -1 -1 -1
2 0 -0 -1 -1 -2 -2 -2 -2 -2 -2 -2 -2 -2 -2 -2 -2 -2 -1 -1 -1 -1 -1 -2 -2 -2 -2 -2 -1 -2 -1 -1 -1 -1 -1 -0 -0 -1 -1 -1 -1 -1 -1
1 0 -0 -1 -1 -1 -1 -1 -1 -1 -1 -2 -2 -1 -1 -1 -1 -1 -1 -1 -1 -1 -1 -2 -2 -2 -2 -2 -2 -2 -2 -1 -1 -1 -0 -0 -0 -1 -1 -1 -1 -1 -1
0 0 -0 -1 -1 -1 -1 -1 -1 -1 -1 -1 -1 -1 -1 -1 -1 -1 -2 -2 -2 -2 -2 -2 -2 -2 -2 -2 -2 -2 -2 -1 -1 -1 -0 0 0 -1 -1 -1 -1 -1 -1
0 -0 -1 -1 -1 -1 -1 -1 -1 -1 -1 -1 -1 -1 -1 -1 -1 -1 -1 -1 -2 -2 -2 -2 -2 -2 -2 -2 -2 -2 -2 -1 -1 0 0 -0 0 -1 -1 -1 -1 -1 -1
1 0 -0 -1 -1 -1 -1 -1 -1 -1 -1 -1 -1 -1 -1 -1 -1 -1 -1 -2 -2 -2 -2 -2 -2 -2 -1 -2 -2 -2 -1 -1 -0 0 0 0 0 -1 -1 -1 -1 -2 -1
1 0 0 -1 -1 -1 -1 -1 -1 -1 -1 -1 -1 -1 -1 -1 -1 -1 -1 -1 -2 -2 -2 -2 -2 -2 -2 -2 -2 -2 -1 -1 -0 0 0 0 -1 -1 -1 -1 -1 -1 -1
0 0 0 0 -0 -1 -1 -1 -1 -1 -1 -1 -1 -1 -1 -1 -1 -1 -1 -2 -2 -2 -2 -2 -2 -2 -2 -2 -2 -1 -1 -1 0 0 -0 0 -1 -1 -1 -1 -1 -1 -2
1 0 0 0 0 1 1 -1 -1 -1 -1 -1 -1 -1 -1 -1 -1 -1 -1 -1 -2 -2 -2 -2 -2 -2 -2 -2 -2 -1 -1 -1 0 0 0 0 -1 -1 -1 -1 -1 -1 -2
3 3 2 0 0 1 0 0 -1 -1 -1 -1 -1 -1 -1 1 1 -0 -1 -1 -1 -1 -1 -2 -2 -2 -2 -2 -1 -1 -1 0 1 0 0 -1 -1 -1 -1 -1 -1 -1 -1
3 4 3 2 1 1 -0 1 1 0 1 1 1 1 2 1 2 -0 -1 -1 -1 -1 -1 -1 -1 -1 -1 1 0 -1 1 0 1 0 0 -1 -1 -1 -1 -1 -1 -2 -1
2 4 4 3 2 1 1 1 1 2 2 2 2 2 2 1 1 1 1 1 1 -1 0 -0 -0 0 1 2 1 1 1 0 1 0 -0 -1 -1 -1 -1 -1 -1 -1 -1
5 4 4 3 3 3 2 2 2 3 2 3 2 2 2 2 2 2 2 2 2 1 1 1 1 1 2 1 1 1 0 0 1 1 0 -1 -1 -1 -1 -1 -1 -1 -1
6 5 3 2 2 2 2 2 3 2 2 2 2 2 2 2 2 2 1 1 1 1 1 2 2 2 2 1 2 2 1 0 0 1 0 -1 -1 -1 -1 -1 -1 -1 -2
5 4 3 2 1 2 2 2 2 2 2 2 2 2 2 2 2 2 2 1 2 2 2 2 2 2 2 2 2 2 2 0 0 1 0 0 -1 -1 -1 -1 -1 -1 -1
4 4 3 2 2 2 2 2 2 2 2 2 2 2 2 2 2 2 3 3 2 2 2 2 2 2 2 2 2 1 1 1 0 0 0 0 0 -1 -1 -1 -1 -1 -1
3 3 3 1 2 2 2 2 3 2 3 2 2 2 2 2 2 2 3 3 2 2 2 2 2 2 2 2 2 2 2 1 0 0 0 0 1 0 -1 -1 -1 -1 -1
3 3 3 2 3 2 3 3 3 2 2 2 2 3 2 2 1 2 3 3 2 3 3 2 3 3 3 3 2 2 2 2 1 0 1 1 1 0 0 -1 -1 -1 -1
4 3 3 3 3 3 3 3 3 3 3 2 3 3 2 2 1 3 3 3 2 3 3 3 3 2 3 3 2 2 3 3 2 2 1 0 -0 -0 0 0 -0 -1 -1
4 3 3 3 3 3 4 4 4 4 3 3 2 2 2 1 2 2 2 2 2 3 3 2 2 3 3 3 3 4 2 2 1 1 0 1 1 0 0 0 0 0 0
3 3 3 3 3 3 4 3 4 4 3 3 3 1 1 1 2 2 2 2 3 3 3 3 3 3 3 3 4 4 6 4 2 1 1 1 1 1 0 0 1 1 0
3 3 3 3 3 4 3 3 4 4 3 3 3 3 2 2 1 1 2 2 3 3 3 3 3 3 4 3 3 4 6 7 4 2 2 1 1 1 1 1 1 1 0
3 3 3 3 4 3 3 3 4 5 5 4 4 3 3 2 1 1 2 2 2 3 3 3 2 3 3 4 3 2 3 4 6 6 3 2 1 1 1 1 1 1 0
4 3 4 4 4 3 3 4 4 5 4 4 4 3 3 3 1 1 2 2 3 3 3 2 3 3 3 3 3 3 3 3 3 4 6 4 2 1 1 1 0 0 0
4 4 4 4 3 3 3 4 4 4 4 4 4 4 4 3 2 2 2 2 3 3 2 3 3 3 3 3 2 2 3 4 4 4 5 4 4 2 1 1 1 1 -0

GFSSE_con_lsi_015.txt.gz
Lid_Strength_Index
1 -1 -1 -1 -2 -2 -2 -2 -2 -2 -2 -2 -2 -2 -2 -1 -1 -1 -1 -0 -1 -1 -1 -1 -1 -1 -1 -1 -1 -1 -1 -1 -0 -0 -1 -1 -1 -1 -2 -1 -1 -1 -1
-0 -1 -1 -1 -2 -2 -2 -2 -2 -2 -2 -2 -2 -2 -2 -1 -1 -1 -1 -1 -1 -1 -1 -1 -1 -1 -1 -2 -1 -1 -1 -1 -1 -0 -0 -1 -1 -1 -1 -1 -2 -1 -1
-0 -1 -1 -1 -2 -2 -2 -2 -2 -2 -2 -2 -2 -2 -2 -2 -2 -2 -1 -1 -1 -1 -1 -1 -1 -1 -1 -2 -2 -1 -1 -1 -1 -1 -0 -1 -1 -1 -1 -1 -1 -1 -1
-0 -1 -1 -1 -1 -2 -2 -2 -2 -2 -2 -2 -2 -2 -2 -2 -2 -2 -2 -2 -1 -1 -2 -2 -1 -1 -1 -2 -2 -2 -2 -1 -1 -1 -1 -1 -1 -1 -1 -1 -1 -1 -1
-0 -1 -1 -1 -1 -1 -2 -2 -1 -2 -2 -2 -2 -2 -2 -2 -2 -2 -2 -2 -2 -2 -2 -2 -2 -2 -2 -1 -2 -2 -2 -2 -1 -1 -1 -2 -2 -1 -1 -2 -1 -1 -1
-0 -1 -1 -1 -1 -1 -2 -1 -1 -1 -2 -2 -2 -2 -2 -2 -2 -1 -1 -1 -2 -2 -2 -2 -2 -2 -2 -2 -2 -2 -2 -2 -2 -2 -2 -2 -2 -1 -1 -1 -2 -2 -2
-0 -1 -1 -1 -1 -1 -1 -1 -1 -1 -2 -2 -1 -2 -2 -1 -1 -1 -1 -1 -2 -2 -2 -2 -2 -2 -2 -2 -2 -2 -2 -2 -1 -1 -1 -2 -2 -1 -1 -1 -1 -2 -2
-0 -1 -1 -1 -1 -1 -1 -1 -1 -1 -1 -1 -1 -2 -2 -1 -1 -1 -1 -1 -1 -1 -2 -2 -2 -2 -2 -2 -2 -1 -1 -2 -1 -1 -1 -1 -2 -1 -1 -1 -1 -1 -1
-0 -0 -1 -1 -1 -1 -1 -1 -1 -1 -1 -1 -1 -1 -1 -1 -1 -1 -1 -1 -1 -2 -2 -2 -2 -2 -2 -2 -2 -2 -1 -2 -1 -1 -1 -1 -1 -1 -1 -1 -1 -1 -1
-0 -0 -0 -1 -1 -1 -1 -1 -1 -1 -1 -1 -1 -1 -1 -1 -1 -1 -1 -1 -1 -1 -1 -2 -2 -2 -2 -2 -2 -2 -1 -1 -1 -1 -1 -1 -1 -1 -1 -1 -1 -1 -1
1 0 -0 -0 -1 -1 -1 -1 -1 -1 -1 -1 -1 -1 -1 -2 -1 -1 -1 -1 -1 -1 -1 -1 -1 -1 -2 -2 -2 -1 -1 -1 -1 -1 -1 -1 -1 -1 -1 -1 -1 -1 -1
1 1 0 -0 -0 -1 -1 -1 -1 -1 -1 -1 -1 -2 -2 -1 -2 -1 -1 -1 -1 -1 -1 -1 -1 -1 -1 -1 -1 -1 -1 -1 -1 -1 -1 -1 -1 -1 -1 -1 -1 -1 -1
1 1 0 -0 -1 -0 -0 -1 -1 -1 -1 -1 -1 -2 -2 -1 -1 -1 -1 -1 -2 -1 -1 -1 -1 -1 -1 -1 -1 -1 -1 -1 -1 -1 -2 -1 -1 -1 -1 -1 -1 -1 -1
1 1 0 -0 -0 -0 -0 -0 -1 -0 -1 -1 -1 -2 -1 -1 -1 -1 -1 -1 -1 -1 -1 -1 -1 -1 -1 -1 -1 -1 -1 -1 -1 -1 -1 -1 -1 -1 -1 -1 -1 -1 -1
2 1 1 0 0 -0 -0 -0 -0 -0 -0 -1 -1 -1 -1 -0 -0 -1 -1 -1 -1 -1 -1 -1 -1 -1 -1 -1 -1 -1 -1 -1 -1 -1 -1 -1 -1 -1 -1 -1 -1 -1 -1
1 1 0 0 -0 -0 -0 -0 -0 -1 -1 -1 -1 -1 -2 -1 -1 -0 -0 -0 -1 -1 -1 -1 -1 -0 -0 -1 -0 -1 -1 -1 -1 -1 -1 -2 -1 -1 -1 -1 -1 -1 -1
1 1 1 0 -0 -0 -0 -0 -1 -1 -1 -0 -1 -1 -1 -1 -1 -1 -0 -0 -0 -1 -1 -1 -1 -1 -0 -0 -0 -0 -1 -1 -1 -1 -1 -1 -1 -1 -1 -1 -1 -1 -1
1 1 0 0 0 -0 -0 -0 -0 -0 -1 -0 -1 -1 -1 -1 -1 -1 -0 -0 -1 -1 -1 -0 -0 0 0 0 0 -0 -0 -1 -1 -1 -1 -1 -1 -1 -1 -1 -1 -1 -1
1 1 1 0 0 0 -0 -0 -0 -1 -0 -1 -1 -1 -1 -1 -1 -1 -0 -0 -1 -0 -0 -0 0 0 1 1 0 0 -0 -0 -1 -1 -1 -1 -2 -2 -1 -1 -1 -1 -1
1 1 1 1 0 0 -0 -0 -0 -0 -0 -1 -0 -0 -1 -1 -1 -1 -0 -0 -1 -0 0 0 0 0 0 0 1 1 0 -0 -1 -0 -1 -1 -1 -1 -1 -1 -1 -1 -1
1 1 1 1 1 0 1 1 1 1 1 0 -0 -1 -1 -1 -1 -1 -0 -0 -0 0 0 -0 0 1 1 0 1 1 1 0 -0 -1 -1 -1 -1 -1 -1 -1 -1 -1 -1
2 1 1 1 1 0 1 0 0 0 0 -0 -1 -1 -1 -1 -1 -1 -0 -0 -0 0 0 0 0 1 1 0 2 2 4 2 1 0 -1 -0 -0 -1 -0 -1 -1 -1 -1
2 2 1 1 1 0 -0 0 0 -0 0 1 0 -0 -1 -1 -1 -1 -1 -0 -0 -0 0 0 0 1 2 1 0 2 5 5 3 1 1 1 0 0 -0 -0 -1 -0 -0
2 1 1 1 1 0 -0 1 1 2 2 1 0 -0 -1 -1 -1 -1 -1 -0 -0 -0 0 0 0 0 1 2 1 1 0 1 4 5 1 1 1 1 0 0 0 0 -1
2 2 1 1 1 0 0 0 1 1 1 0 -0 1 -0 -1 -1 -1 -1 -1 -0 -0 -0 -0 0 0 1 1 1 2 1 1 1 4 6 4 2 1 1 0 0 0 0
2 1 1 1 1 1 0 0 1 1 1 1 1 1 0 -0 -0 -1 -0 -1 -0 -0 -0 -0 -0 -0 0 0 0 1 1 2 3 3 4 4 4 2 1 0 0 -0 0

GFSSE_con_lsi_021.txt.gz
Lid_Strength_Index
0 -1 -1 -1 -2 -2 -2 -2 -2 -2 -2 -2 -2 -2 -2 -2 -2 -2 -1 -1 -1 -0 -0 -0 -0 -0 -1 -1 -1 -1 -1 -1 -1 -1 -1 -1 -1 -1 -1 -1 -1 -1 -2
-0 -1 -1 -1 -2 -2 -2 -2 -2 -2 -2 -2 -2 -2 -2 -2 -2 -1 -1 -1 -1 -1 -1 -1 -1 -1 -1 -1 -1 -1 -1 -1 -1 -1 -1 -1 -1 -1 -1 -1 -1 -1 -2
-0 -1 -1 -1 -1 -2 -2 -2 -2 -2 -2 -2 -2 -2 -2 -2 -1 -1 -1 -1 -1 -1 -1 -1 -1 -1 -1 -1 -1 -2 -1 -1 -1 -1 -2 -1 -1 -1 -1 -1 -1 -1 -2
-0 -1 -1 -1 -1 -1 -2 -2 -2 -2 -2 -2 -2 -2 -2 -1 -1 -1 -1 -1 -1 -1 -1 -1 -1 -1 -1 -1 -1 -1 -2 -2 -2 -2 -2 -1 -1 -2 -1 -1 -1 -1 -2
-1 -1 -1 -1 -1 -1 -1 -2 -2 -2 -2 -2 -2 -1 -1 -1 -1 -1 -1 -1 -1 -1 -1 -1 -1 -2 -1 -1 -1 -1 -2 -2 -2 -2 -2 -1 -2 -1 -2 -2 -1 -1 -1
-0 -1 -1 -1 -1 -1 -1 -1 -2 -2 -2 -2 -2 -2 -1 -1 -2 -2 -1 -1 -1 -1 -1 -1 -2 -2 -1 -1 -2 -1 -1 -2 -2 -1 -2 -2 -2 -3 -1 -1 -1 -2 -1
-0 -1 -1 -1 -1 -1 -1 -1 -2 -1 -1 -2 -2 -2 -1 -2 -2 -2 -1 -1 -1 -1 -1 -2 -1 -2 -1 -2 -2 -2 -1 -1 -1 -1 -1 -2 -2 -2 -1 -1 -1 -1 -1
-0 -1 -1 -1 -1 -1 -1 -1 -1 -1 -1 -1 -2 -2 -2 -2 -1 -1 -1 -1 -1 -1 -1 -1 -1 -1 -1 -1 -1 -1 -1 -1 -1 -1 -1 -2 -2 -1 -1 -1 -1 -1 -1
-1 -1 -1 -1 -1 -1 -1 -1 -1 -1 -1 -1 -1 -1 -1 -1 -1 -1 -1 -1 -1 -1 -1 -1 -1 -1 -1 -1 -1 -1 -1 -1 -1 -1 -1 -1 -2 -2 -1 -1 -1 -1 -1
-0 -0 -1 -1 -1 -1 -1 -1 -1 -1 -1 -1 -1 -1 -1 -1 -1 -1 -1 -2 -2 -1 -1 -1 -1 -1 -1 -2 -2 -1 -1 -1 -1 -1 -1 -1 -2 -1 -1 -1 -1 -1 -1
0 -0 -1 -0 -1 -1 -1 -1 -1 -1 -1 -1 -1 -1 -1 -1 -2 -2 -2 -1 -1 -1 -1 -1 -1 -1 -1 -1 -1 -1 -1 -1 -1 -1 -1 -2 -1 -1 -1 -1 -1 -1 -1
1 0 -0 -1 -1 -1 -1 -1 -1 -1 -1 -1 -2 -2 -1 -2 -2 -1 -2 -1 -1 -1 -1 -1 -1 -1 -1 -1 -1 -2 -1 -1 -1 -1 -1 -2 -1 -1 -1 -1 -1 -1 -1
0 0 -0 -0 -1 -1 -0 -1 -1 -1 -1 -1 -2 -2 -2 -1 -2 -1 -1 -1 -1 -1 -1 -1 -1 -1 -1 -1 -1 -1 -0 -1 -1 -1 -2 -2 -1 -1 -1 -1 -1 -1 -1
1 0 -0 -0 -0 -1 -0 -0 -1 -0 -0 -1 -1 -2 -1 -0 -1 -1 -1 -1 -1 -1 -1 -1 -1 -2 -1 -1 -1 -0 -1 -1 -1 -1 -1 -1 -1 -1 -1 -1 -1 -1 -1
1 0 -0 -0 -0 -0 -0 -0 -0 -0 -0 -1 -1 -2 -1 -1 -1 -1 -1 -1 -1 -1 -1 -1 -1 -0 -0 -0 -0 -0 -0 -1 -1 -1 -1 -1 -1 -1 -1 -1 -1 -1 -1
1 0 -0 -0 -0 -0 -0 -1 -0 -1 -1 -1 -1 -1 -2 -1 -1 -0 -0 -0 -0 -1 -1 -1 -0 -0 -0 -0 0 -0 -1 -1 -0 -1 -1 -1 -1 -1 -1 -1 -1 -1 -1
0 0 0 -0 -0 -0 -0 -0 -0 -0 -1 -0 -1 -2 -2 -2 -1 -1 -0 -0 -1 -2 -1 -0 -1 -0 -0 -0 0 -0 -0 -0 -0 -1 -1 -1 -1 -2 -2 -1 -1 -1 -1
0 0 -0 0 0 0 -0 -0 -0 -0 -1 -1 -1 -1 -1 -1 -1 -1 -0 -0 -1 -1 -1 -0 0 0 1 1 1 -0 -0 -0 -0 -1 -1 -1 -1 -1 -1 -2 -1 -1 -1
0 0 0 -0 0 0 -0 -0 -0 -1 -0 -1 -1 -1 -1 -1 -1 -0 -0 -0 -1 -0 -0 0 0 0 1 1 0 -0 -0 -0 -0 -0 0 -1 -2 -2 -1 -1 -1 -1 -1
-0 -1 -0 0 -0 0 0 -0 -0 -0 -0 -1 -1 -1 -1 -1 -1 -0 -0 -0 -1 -0 0 0 0 1 0 1 1 1 0 0 -0 0 0 -1 -1 -1 -2 -1 -1 -1 -1
0 0 0 0 0 1 1 1 1 1 0 -0 -0 -1 -1 -1 -1 -0 -0 -0 -0 0 0 -0 1 1 1 -0 1 1 1 0 -0 0 -0 -0 -0 -1 -1 -1 -1 -1 -1
1 1 1 1 1 1 1 0 0 0 0 -0 -0 -1 -1 -1 -1 -0 -0 -0 -0 0 0 0 0 1 1 -0 2 2 5 3 1 0 0 0 -0 -1 -0 -1 -1 -2 -1
2 1 1 1 1 0 -0 0 -0 -0 -0 1 0 0 -0 -1 -1 -1 -0 -0 -0 -0 1 0 0 1 2 1 1 2 5 6 3 1 1 0 -0 -0 -0 -1 -1 -1 -1
2 1 1 1 1 0 -0 0 0 1 2 0 -0 -0 -0 -1 -1 -1 -1 -0 -0 -0 0 0 -0 1 1 2 1 1 1 2 5 5 1 1 -0 0 -0 -0 -1 -1 -1
1 1 1 1 0 0 -0 -0 1 0 1 0 -0 -0 -0 -1 -1 -1 -1 -1 -0 -0 -1 -0 -0 0 0 1 2 1 2 2 2 4 5 3 1 0 -0 0 -1 -1 -1
1 1 1 1 1 0 -0 -0 0 0 1 1 1 1 0 -0 -0 -0 -1 -1 -1 -1 -0 -0 -0 -0 0 0 0 1 2 3 3 3 4 4 4 2 1 0 0 -1 -0

GFSSE_con_lsi_024.txt.gz
Lid_Strength_Index
1 -0 -1 -1 -2 -2 -2 -2 -2 -2 -2 -2 -2 -2 -3 -3 -2 -2 -2 -2 -2 -1 -1 -1 -0 -0 -0 -1 -1 -1 -1 -2 -1 -1 -1 -1 -1 -1 -1 -1 -1 -1 -1
0 -0 -1 -1 -2 -2 -2 -2 -2 -2 -2 -2 -2 -3 -3 -3 -2 -2 -2 -1 -1 -1 -1 -1 -1 -1 -1 -1 -1 -1 -1 -2 -2 -2 -1 -1 -1 -1 -1 -1 -1 -1 -2
0 -0 -1 -1 -1 -2 -2 -2 -2 -2 -2 -2 -2 -2 -2 -2 -2 -2 -1 -1 -1 -1 -1 -1 -1 -1 -1 -1 -1 -1 -2 -2 -2 -2 -2 -1 0 -1 -2 -1 -1 -1 -2
0 -0 -1 -1 -1 -1 -2 -2 -2 -2 -2 -2 -2 -2 -2 -2 -2 -1 -1 -1 -1 -1 -1 -1 -1 -1 -1 -1 -1 -1 -2 -2 -2 -2 -1 -1 -1 -2 -2 -2 -1 -1 -2
0 -0 -1 -1 -1 -1 -2 -2 -2 -2 -2 -2 -2 -2 -2 -1 -1 -1 -1 -1 -1 -1 -1 -1 -1 -1 -2 -1 -1 -1 -1 -2 -2 -1 -0 -0 -0 -2 -2 -2 -2 -1 -2
0 -0 -1 -1 -1 -1 -1 -1 -1 -1 -2 -2 -2 -2 -2 -2 -2 -2 -2 -1 -1 -1 -1 -1 -1 -2 -2 -2 -1 -2 -2 -1 -1 -0 -0 -1 -1 -2 -1 -1 -1 -1 -2
0 -0 -0 -1 -1 -1 -1 -1 -1 -1 -1 -2 -2 -2 -2 -2 -2 -2 -2 -1 -1 -1 -1 -1 -1 -1 -1 -1 -2 -2 -1 -1 -1 -0 -0 -0 -1 -2 -1 -1 -1 -1 -1
-0 -0 -0 -1 -1 -1 -1 -1 -1 -1 -1 -1 -2 -2 -2 -2 -2 -1 -2 -1 -1 -1 -1 -1 -1 -2 -1 -1 -2 -2 -1 -1 -1 -0 -0 -0 -2 -1 -1 -1 -1 -1 -1
-0 0 0 -0 -1 -1 -1 -1 -1 -1 -1 -1 -1 -1 -1 -1 -1 -1 -1 -1 -1 -1 -1 -1 -1 -1 -2 -1 -1 -2 -1 -1 -0 -0 -0 -0 -2 -2 -2 -1 -1 -1 -1
0 0 0 -0 -0 -0 -1 -1 -1 -1 -1 -1 -1 -1 -1 -1 -1 -1 -1 -1 -1 -2 -1 -1 -1 -1 -1 -2 -2 -2 -1 -1 -0 -0 -0 -0 -2 -2 -2 -2 -1 -1 -1
0 0 0 0 0 -0 -0 -1 -1 -1 -1 -1 -1 -1 -1 -1 -1 -1 -1 -2 -2 -2 -1 -1 -1 -1 -1 -1 -1 -1 -1 -0 -0 -0 -0 -2 -2 -2 -2 -2 -1 -1 -1
1 1 0 0 0 0 -0 -0 -0 -1 -1 -0 -1 -1 -1 -1 -1 -1 -1 -2 -1 -2 -1 -1 -1 -1 -1 -0 -0 -1 -0 -0 -0 -0 -0 -3 -2 -2 -2 -2 -1 -1 -1
1 1 0 0 0 0 0 -0 -0 -0 -0 -0 -1 -1 -1 -0 -1 -1 -0 -0 -0 -1 -0 -1 -1 -0 -0 -0 -0 -0 -0 -0 -0 -0 -1 -2 -2 -2 -2 -1 -1 -1 -1
1 0 0 0 0 0 0 0 0 0 -0 0 -0 -0 -0 0 -0 -0 0 -0 -0 -0 -0 -0 -0 -0 -0 -0 -0 0 -0 -0 0 -0 -1 -2 -2 -2 -1 -1 -1 -1 -2
1 1 0 0 1 0 0 0 0 0 0 -0 -0 -0 -0 0 0 0 0 -0 -0 -1 -0 0 0 0 0 -0 -0 -0 0 0 -0 -0 -0 -2 -2 -2 -2 -1 -1 -1 -1
0 1 0 1 1 0 1 0 0 0 0 0 -0 -0 -1 -0 0 0 0 0 0 -0 -0 -0 0 0 0 0 0 0 0 -0 -0 -0 -0 -1 -2 -2 -2 -2 -2 -1 -2
1 0 0 1 1 1 1 0 0 0 -0 0 -0 -0 -0 -0 -0 -0 0 0 0 -0 -0 -0 0 -0 1 0 1 0 0 0 0 0 -0 -0 -1 -2 -2 -2 -2 -1 -2
1 1 1 1 1 1 1 0 0 0 0 0 -0 -0 -0 -0 -1 -0 0 0 -0 -0 -0 0 1 1 1 1 1 1 1 0 0 0 -0 -0 -0 -0 -1 -2 -2 -2 -2
1 1 1 1 1 1 1 0 0 -0 0 -0 -0 -0 -0 -0 -0 0 0 0 -0 0 0 1 1 1 1 1 1 1 1 1 0 0 0 -0 -0 -0 -0 -1 -1 -1 -1
1 1 1 1 1 1 1 1 1 0 0 -0 -0 -0 -0 -0 -0 0 0 0 -0 0 1 1 1 1 1 1 1 1 1 1 0 0 0 0 0 -0 -0 -0 -0 -0 -1
1 -0 1 1 1 1 2 2 2 2 1 0 0 -0 -0 -0 -0 -0 0 0 0 1 1 1 1 2 2 1 2 2 2 1 1 1 1 0 0 0 0 0 -0 -0 -0
2 1 1 1 1 1 1 1 1 1 1 1 0 0 -0 -0 -0 0 0 0 0 1 1 1 1 2 2 1 3 3 6 4 2 1 1 1 1 0 0 0 -0 -0 -0
2 2 2 1 1 1 1 1 1 1 1 1 1 1 0 -0 -0 -0 -0 0 0 1 1 1 1 2 3 2 2 3 6 7 4 2 2 1 1 1 0 1 0 0 -0
2 2 1 1 1 1 1 1 1 2 2 2 1 1 1 -0 -0 -0 -0 0 0 0 1 1 1 1 2 3 2 2 2 3 6 6 3 2 1 1 1 1 0 0 0
2 2 2 1 1 1 1 1 2 2 2 1 1 1 1 0 -0 -0 -0 0 0 0 1 1 1 1 1 2 2 3 3 3 3 4 6 5 2 1 1 1 0 0 0
2 2 2 2 2 1 1 1 1 2 1 2 1 2 1 1 0 0 -0 0 0 0 1 1 1 1 1 1 2 2 3 4 4 4 5 5 4 3 1 1 1 1 0

GFSSE_con_lsi_027.txt.gz
Lid_Strength_Index
1 0 -1 -1 -1 -2 -2 -2 -2 -2 -2 -2 -2 -2 -2 -2 -2 -2 -2 -2 -2 -2 -1 -1 -1 -1 -1 -1 -1 -1 -1 -1 -2 -1 -1 -1 -1 -1 -1 -1 -1 -1 -1
0 -0 -1 -1 -2 -2 -2 -2 -2 -2 -2 -2 -2 -2 -2 -2 -2 -2 -2 -2 -1 -1 -1 -1 -1 -1 -1 -1 -1 -1 -1 -1 -2 -2 -2 -1 -0 -2 -1 -1 -1 -1 -2
1 0 -0 -1 -1 -2 -2 -2 -2 -2 -2 -2 -2 -2 -2 -2 -2 -2 -2 -2 -1 -1 -1 -1 -1 -1 -1 -1 -1 -1 -1 -1 -2 -2 -2 -0 1 0 -1 -1 -1 -2 -2
0 0 -0 -1 -1 -2 -2 -2 -2 -2 -2 -2 -2 -2 -2 -2 -2 -2 -2 -1 -1 -1 -1 -1 -1 -1 -1 -1 -1 -1 -1 -1 -1 -2 -0 -0 -0 0 -2 -2 -2 -1 -2
0 0 -0 -1 -1 -1 -2 -2 -2 -2 -2 -2 -2 -2 -2 -2 -2 -2 -1 -1 -1 -1 -1 -1 -1 -1 -1 -1 -1 -1 -1 -1 -1 -1 0 1 0 -0 -3 -2 -2 -2 -2
0 -0 -1 -1 -1 -1 -2 -2 -2 -2 -2 -2 -2 -2 -2 -2 -2 -2 -1 -1 -1 -1 -1 -1 -1 -1 -1 -2 -2 -1 -1 -1 -1 0 0 -0 -0 -3 -2 -2 -1 -2 -2
1 -0 -0 -1 -1 -1 -1 -2 -1 -2 -1 -2 -2 -2 -2 -2 -2 -2 -1 -1 -1 -1 -1 -1 -1 -1 -1 -1 -1 -1 -2 -1 -0 0 0 0 1 -2 -2 -2 -2 -2 -1
1 0 -0 -1 -1 -1 -1 -1 -1 -1 -1 -1 -1 -2 -2 -2 -2 -2 -1 -1 -1 -1 -1 -1 -1 -1 -1 -1 -1 -1 -2 -1 -1 0 -0 0 -1 -1 -2 -2 -2 -2 -1
0 0 0 -0 -1 -1 -1 -1 -1 -1 -1 -1 -1 -1 -1 -2 -1 -1 -1 -1 -1 -1 -1 -1 -1 -1 -2 -1 -1 -1 -1 -1 0 0 -0 1 -2 -2 -2 -2 -1 -1 -1
1 1 0 0 -0 0 -0 -1 -1 -1 -1 -1 -1 -1 -1 -1 -1 -1 -1 -1 -1 -1 -1 -1 -1 -1 -2 -2 -1 -1 -1 -1 0 0 0 0 -2 -2 -2 -2 -1 -1 -1
2 1 1 0 0 0 0 -0 -1 -1 -1 -1 -1 -1 -1 0 0 -0 -1 -1 -1 -1 -2 -2 -1 -1 -1 -1 -1 -1 -1 1 0 0 -0 -2 -2 -2 -2 -2 -1 -1 -1
4 2 1 1 0 0 -0 0 -0 -0 -0 -0 -0 0 0 0 1 -0 -1 -1 -1 -2 -2 -2 -1 -1 -1 0 0 -1 -0 0 0 1 -0 -2 -2 -2 -2 -2 -2 -1 -1
4 3 1 1 0 0 0 0 0 -0 0 -0 0 0 0 0 0 0 1 0 0 -1 0 -0 -0 0 0 1 0 1 -0 -0 0 0 -1 -2 -2 -2 -2 -1 -2 -1 -1
4 3 1 1 1 1 0 0 0 0 0 0 0 0 0 0 1 2 1 1 1 1 1 1 1 1 1 0 0 0 0 -0 1 0 0 -2 -2 -2 -2 -2 -2 -1 -1
5 4 2 1 1 1 1 1 0 1 0 0 0 0 0 1 2 2 1 1 1 1 1 1 1 0 1 1 0 0 0 0 0 -0 -0 -2 -2 -2 -2 -2 -2 -2 -1
4 3 2 1 1 1 1 1 1 0 1 1 0 0 0 1 2 1 1 1 2 1 1 1 1 1 1 1 1 0 0 1 0 0 -1 -0 -2 -2 -2 -2 -2 -2 -2
3 3 2 1 1 1 1 1 1 1 1 1 1 0 1 2 2 1 2 1 2 1 1 1 1 1 1 1 1 0 0 0 0 0 0 0 -1 -2 -2 -2 -2 -2 -2
3 3 2 1 1 1 1 2 1 1 2 2 2 1 1 1 0 1 2 2 1 1 1 2 2 2 2 2 2 1 1 1 0 -0 0 0 0 -0 -1 -2 -2 -2 -2
3 2 2 2 2 1 1 1 1 1 2 2 2 2 0 0 -0 1 1 2 1 2 2 2 2 2 2 2 2 2 1 1 1 0 0 1 0 0 0 -1 -2 -1 -1
3 2 2 2 2 1 1 1 1 2 3 2 2 1 0 0 0 1 1 1 1 2 2 2 2 2 2 2 1 2 2 1 1 2 1 0 0 0 1 0 -0 -0 -1
3 3 2 2 2 2 2 2 3 3 3 3 2 1 0 0 0 1 2 2 2 2 2 2 2 3 2 2 3 3 2 2 2 2 2 1 1 1 1 0 0 -0 -0
3 3 3 2 2 2 2 2 3 4 3 3 3 1 1 1 1 1 1 2 2 2 2 2 2 2 2 2 3 4 6 4 3 2 1 2 2 1 1 0 0 -0 0
3 3 3 3 2 2 2 2 3 4 4 3 2 2 1 1 0 1 1 2 2 2 2 3 2 3 4 3 2 4 6 7 5 3 2 2 2 1 1 0 0 0 0
3 2 2 2 3 2 3 3 4 5 4 3 3 2 2 1 0 0 1 1 2 2 2 2 2 2 3 4 3 2 2 3 6 7 4 2 2 2 2 1 1 1 0
3 3 2 2 3 3 3 3 3 4 3 2 2 2 2 2 1 1 1 1 2 2 2 2 2 3 3 3 4 4 3 3 3 5 7 5 3 2 2 1 1 1 1
3 3 3 3 3 3 3 2 3 3 3 3 3 3 3 2 2 1 1 2 2 2 2 2 2 2 2 3 3 3 4 4 4 4 5 5 5 3 2 2 1 1 1

GFSSE_con_lsi_030.txt.gz
Lid_Strength_Index
1 0 -1 -1 -2 -2 -2 -2 -2 -2 -2 -2 -2 -2 -2 -2 -2 -2 -2 -2 -2 -2 -2 -1 -1 -1 -1 -1 -1 -1 -1 -1 -1 -1 -0 -0 -1 -1 -2 -2 -1 -1 -1
1 -0 -1 -1 -2 -2 -2 -2 -2 -2 -2 -2 -2 -2 -2 -2 -2 -2 -2 -2 -2 -1 -1 -1 -1 -1 -1 -1 -1 -1 -1 -1 -1 -1 -1 -1 1 -0 -1 -1 -1 -1 -1
1 -0 -0 -1 -1 -2 -2 -2 -2 -2 -2 -2 -2 -2 -2 -2 -2 -2 -2 -2 -1 -1 -1 -1 -1 -1 -1 -1 -1 -1 -1 -1 -1 -1 -1 0 1 2 -1 -1 -1 -1 -2
0 0 -0 -1 -1 -1 -1 -2 -2 -2 -2 -2 -2 -2 -2 -2 -2 -2 -2 -2 -1 -1 -1 -1 -1 -1 -1 -1 -1 -1 -1 -1 -1 -1 0 -0 -0 1 1 -2 -1 -1 -2
0 0 -0 -1 -1 -1 -1 -2 -2 -2 -2 -2 -2 -2 -2 -2 -2 -2 -2 -2 -2 -1 -1 -1 -1 -1 -1 -1 -1 -1 -1 -1 -1 -1 0 1 1 0 -1 -3 -2 -1 -1
0 -0 -1 -1 -1 -1 -1 -1 -2 -2 -2 -2 -2 -2 -2 -2 -2 -2 -2 -2 -1 -1 -1 -1 -1 -1 -1 -1 -2 -1 -1 -1 -1 0 0 0 0 -1 -2 -2 -2 -2 -2
1 0 -0 -1 -1 -1 -1 -1 -2 -2 -2 -2 -2 -2 -2 -2 -2 -2 -1 -1 -1 -1 -1 -1 -1 -1 -1 -1 -1 -1 -1 -1 -0 0 0 0 0 -2 -2 -2 -2 -2 -2
1 0 -0 -1 -1 -1 -1 -1 -1 -1 -1 -1 -2 -2 -2 -2 -2 -2 -2 -1 -1 -1 -1 -1 -1 -1 -1 -1 -1 -1 -1 -1 -0 0 -0 0 -1 -2 -2 -2 -2 -2 -2
0 0 0 -0 -0 -1 -1 -1 -1 -1 -1 -1 -1 -1 -1 -1 -1 -1 -1 -2 -1 -1 -1 -1 -1 -1 -1 -1 -1 -1 -1 -1 0 0 -0 0 -1 -2 -2 -2 -2 -2 -2
1 1 0 0 -0 -0 -0 -1 -1 -1 -1 -1 -1 -1 -1 -1 -1 -1 -1 -1 -1 -1 -1 -1 -1 -1 -1 -1 -1 -1 -1 -1 0 1 0 0 -1 -2 -2 -2 -1 -1 -2
1 1 1 0 0 0 -0 -0 -1 -1 -1 -1 -1 -1 -1 -0 0 -0 -1 -1 -1 -1 -1 -1 -2 -2 -1 -1 -1 -1 -1 0 1 1 0 -1 -1 -2 -2 -2 -2 -1 -1
2 2 1 1 0 0 -0 0 -0 -0 -0 -0 -0 0 -0 0 0 -0 -1 -1 -1 -1 -1 -1 -2 -1 -1 0 0 -1 0 0 1 0 0 -1 -1 -2 -2 -2 -2 -2 -1
4 2 1 1 0 0 0 0 -0 0 0 -0 0 0 0 -0 0 0 0 0 0 -1 0 -0 -0 0 1 0 1 1 1 0 0 -0 -1 -1 -2 -2 -2 -2 -3 -2 -2
5 2 1 1 1 1 0 0 0 0 0 0 -0 0 0 0 0 0 1 2 1 1 2 1 1 1 1 1 1 1 1 1 0 0 1 -1 -2 -2 -2 -2 -2 -2 -2
5 5 1 1 1 1 1 1 0 0 0 0 0 0 0 0 1 0 2 2 1 2 2 2 2 1 2 1 1 1 1 0 0 1 1 -1 -2 -2 -2 -2 -2 -2 -2
4 5 1 1 1 1 1 1 1 0 0 0 0 0 0 0 0 2 3 3 1 2 2 2 2 2 1 1 1 1 1 0 0 0 -0 -0 -2 -2 -2 -2 -2 -2 -2
4 4 2 1 1 1 1 1 1 1 1 1 1 1 0 0 0 2 2 1 2 3 2 2 2 2 2 2 2 1 1 1 1 1 0 -0 -0 -2 -2 -2 -2 -2 -2
4 4 4 1 1 1 1 1 1 1 1 1 1 1 0 1 1 2 2 2 2 2 2 2 2 2 2 2 2 2 1 1 1 1 0 1 0 0 -1 -2 -2 -2 -1
3 4 4 2 2 2 1 2 1 1 1 2 2 1 1 1 1 2 2 2 2 2 2 2 3 3 3 3 3 2 2 2 1 1 1 1 0 -0 -0 -1 -2 -2 -2
4 4 3 2 2 2 2 2 2 3 3 3 2 2 2 2 1 1 2 2 2 2 3 3 3 3 3 3 2 2 2 2 2 2 1 0 1 0 0 0 0 -0 -1
4 4 2 2 2 2 2 2 3 4 4 4 3 2 2 2 0 1 2 2 2 2 3 3 3 2 3 2 3 3 3 2 2 2 2 2 1 1 1 1 0 0 -0
3 3 3 2 2 2 2 2 3 4 4 4 3 2 1 1 1 2 2 3 3 3 3 3 3 3 3 2 3 4 6 4 2 2 2 2 2 1 2 1 0 -0 -0
3 3 3 2 2 2 3 3 4 5 5 5 5 4 2 1 1 2 2 2 2 2 3 3 3 3 4 3 3 4 6 7 5 4 3 2 2 3 2 1 0 0 0
4 3 2 2 3 3 3 4 4 5 6 5 5 3 2 2 2 1 1 2 2 2 3 3 2 3 4 4 4 2 3 4 6 7 4 3 3 2 2 2 1 1 1
3 4 3 3 3 4 4 4 5 6 5 5 3 3 2 2 2 1 2 2 2 3 3 3 3 3 3 4 4 4 4 4 3 5 7 5 4 3 3 2 2 1 1
3 3 4 4 5 5 5 5 6 5 4 3 3 3 4 3 2 2 2 2 2 2 2 2 2 3 3 3 3 3 4 4 4 4 5 6 5 3 2 1 2 2 1

GFSSE_con_lsi_033.txt.gz
Lid_Strength_Index
1 0 -1 -1 -1 -1 -2 -2 -2 -2 -2 -2 -2 -2 -2 -2 -2 -2 -2 -2 -2 -2 -2 -2 -1 -1 -1 -1 -1 -1 -1 -1 -1 -0 1 0 -1 -1 -1 -1 -1 -1 -1
1 -0 -1 -1 -1 -2 -2 -2 -2 -2 -2 -2 -2 -2 -2 -2 -2 -2 -2 -2 -2 -2 -2 -1 -1 -1 -1 -1 -1 -1 -1 -1 -1 -1 -1 -1 1 0 -1 -1 -1 -1 -1
1 0 -0 -1 -1 -1 -1 -1 -1 -1 -2 -2 -2 -2 -2 -2 -2 -2 -2 -2 -2 -2 -2 -2 -1 -1 -1 -1 -1 -1 -1 -1 -1 -1 -1 0 1 1 0 -1 -1 -1 -2
0 0 -0 -1 -1 -1 -1 -1 -1 -1 -2 -2 -2 -2 -2 -2 -2 -2 -2 -2 -2 -2 -1 -1 -1 -1 -1 -1 -1 -1 -1 -1 -1 -1 0 0 0 1 1 0 -1 -1 -1
0 0 -0 -1 -1 -1 -1 -1 -1 -1 -2 -2 -2 -2 -2 -2 -2 -2 -2 -2 -2 -1 -1 -1 -1 -1 -1 -1 -1 -1 -1 -1 -1 -1 1 1 1 -1 0 -1 -2 -1 -1
1 -0 -0 -1 -1 -1 -1 -1 -1 -1 -2 -2 -2 -2 -2 -2 -2 -2 -2 -2 -2 -1 -1 -1 -1 -1 -1 -1 -1 -1 -1 -1 -1 0 0 0 0 -1 -1 -2 -2 -2 -2
1 0 -0 -1 -1 -1 -1 -1 -1 -1 -1 -2 -2 -2 -2 -2 -2 -2 -2 -2 -1 -1 -1 -1 -1 -1 -1 -1 -1 -1 -1 -1 -0 0 0 0 0 -1 -1 -1 -2 -2 -2
1 0 0 -1 -1 -1 -1 -1 -1 -1 -1 -1 -1 -2 -2 -2 -2 -2 -1 -1 -1 -1 -1 -1 -1 -1 -1 -1 -1 -1 -1 -1 -0 1 0 0 -1 -1 -1 -1 -2 -2 -2
0 0 0 0 -0 -1 -1 -1 -1 -1 -1 -1 -1 -1 -1 -1 -1 -2 -1 -1 -1 -1 -1 -1 -1 -1 -1 -1 -1 -1 -1 -1 0 1 0 0 -1 -1 -1 -1 -2 -2 -2
1 1 1 0 0 0 0 -1 -1 -1 -1 -1 -1 -1 -1 -1 -1 -1 -1 -1 -1 -1 -1 -1 -1 -1 -1 -1 -1 -1 -1 -1 0 1 1 0 -1 -1 -1 -2 -1 -1 -1
1 1 1 1 0 0 0 -0 -1 -1 -1 -1 -1 -1 -1 0 0 -0 -1 -1 -1 -1 -1 -1 -1 -1 -1 -1 -1 -1 -1 0 1 1 1 -1 -1 -1 -1 -2 -2 -2 -1
2 2 1 1 1 0 0 0 0 0 0 -0 -0 0 -0 1 1 -0 -1 -1 -1 -1 -1 -1 -1 -1 -1 1 0 -1 1 0 0 0 0 -1 -1 -1 -1 -2 -2 -2 -2
3 2 1 1 1 0 0 0 0 0 0 0 0 0 0 0 0 0 1 0 1 -1 0 -0 0 0 1 1 1 1 0 0 0 0 -0 -1 -1 -1 -1 -1 -2 -2 -2
6 2 1 1 1 1 0 0 0 0 0 0 0 0 0 1 1 1 0 0 0 0 0 1 1 1 1 1 1 1 1 1 1 -0 -0 -1 -1 -1 -2 -2 -2 -2 -2
6 4 2 1 1 1 1 1 1 1 0 0 0 0 0 0 1 1 1 1 1 1 1 2 2 2 2 1 1 1 1 1 1 1 1 -1 -1 -1 -2 -2 -2 -2 -2
5 5 1 1 1 1 1 1 1 0 0 0 0 0 0 0 1 0 1 1 2 2 2 2 2 2 2 2 2 1 1 2 1 0 0 0 -1 -2 -2 -2 -2 -2 -2
4 4 4 1 1 1 1 1 1 1 0 1 0 0 1 1 1 1 1 2 3 2 2 3 3 2 3 2 2 2 2 1 1 1 1 0 -0 -2 -2 -2 -2 -2 -2
5 5 5 1 1 1 1 1 1 1 1 1 1 1 1 1 1 2 1 2 2 2 3 3 3 3 3 3 3 3 2 2 1 1 1 0 0 -0 -1 -2 -2 -2 -2
4 4 5 2 2 1 1 1 1 1 1 1 2 1 1 1 1 1 1 3 3 3 3 3 3 3 4 3 3 3 3 2 2 1 1 1 1 -0 0 -1 -2 -2 -2
5 5 4 2 2 2 2 3 2 2 3 2 2 1 1 1 2 2 2 3 2 3 3 3 3 4 3 3 2 2 2 3 2 2 1 1 1 1 0 1 0 -0 -2
5 5 4 2 2 2 3 3 3 3 3 3 2 2 2 2 2 2 3 3 3 3 3 3 4 3 3 3 4 3 2 2 2 2 2 2 1 1 1 1 1 0 -0
5 5 5 3 2 2 2 2 3 4 5 4 3 2 2 2 2 3 3 2 3 3 3 4 2 4 3 2 4 4 6 4 3 2 2 2 2 2 1 1 1 0 1
5 3 3 2 2 2 3 4 4 4 5 5 5 4 3 2 2 2 1 2 3 3 3 4 4 3 4 3 3 4 7 7 5 3 3 2 2 3 2 2 1 0 0
4 3 3 2 3 3 3 4 4 5 5 6 5 5 4 3 1 1 1 2 2 2 3 3 3 4 4 5 4 3 4 4 6 6 4 3 3 3 3 3 1 1 0
3 3 3 2 3 3 4 4 5 5 6 6 5 5 4 3 2 2 2 2 2 3 3 3 3 4 4 4 4 4 5 4 4 5 7 5 4 4 3 3 2 2 1
3 3 3 3 4 4 5 5 5 6 6 6 6 4 4 4 3 2 2 2 3 2 3 3 3 3 3 4 4 4 4 5 5 5 5 6 6 3 2 1 3 3 2

GFSSE_con_lsi_036.txt.gz
Lid_Strength_Index
2 0 -1 -1 -1 -1 -2 -2 -2 -2 -2 -2 -2 -2 -2 -2 -2 -2 -2 -2 -2 -2 -2 -2 -2 -2 -2 -1 -1 -1 -1 -1 -1 -1 0 0 -1 -1 -1 -1 -1 -1 -1
1 -0 -1 -1 -1 -2 -2 -2 -2 -2 -2 -2 -2 -2 -2 -2 -2 -2 -2 -2 -2 -2 -2 -2 -2 -1 -1 -1 -1 -1 -1 -1 -1 -1 -1 -0 1 0 -0 -1 -1 -1 -1
1 0 -0 -1 -1 -1 -1 -1 -1 -1 -2 -2 -2 -2 -2 -2 -2 -2 -3 -2 -2 -2 -2 -2 -1 -1 -1 -1 -1 -1 -1 -1 -1 -1 -1 -1 -0 2 0 -1 -1 -1 -2
0 0 -0 -1 -1 -1 -1 -1 -1 -1 -2 -2 -2 -2 -2 -2 -2 -2 -2 -2 -2 -2 -2 -2 -1 -1 -1 -1 -1 -1 -1 -1 -1 -1 -0 -1 -1 1 1 0 -1 -1 -2
0 0 -0 -1 -1 -1 -1 -1 -1 -1 -2 -2 -2 -2 -2 -2 -2 -2 -2 -2 -2 -2 -2 -2 -1 -1 -1 -1 -1 -1 -1 -1 -1 -1 -1 -1 -1 -1 -1 -0 -0 -1 -1
1 0 -1 -1 -1 -1 -1 -1 -1 -1 -2 -2 -2 -2 -2 -2 -2 -2 -2 -2 -2 -2 -1 -1 -1 -1 -1 -1 -1 -1 -1 -1 -1 -1 -1 -1 -1 -1 -1 -1 -1 -2 -2
1 0 -0 -1 -1 -1 -1 -1 -1 -1 -1 -2 -2 -2 -2 -2 -2 -2 -2 -2 -2 -1 -1 -1 -1 -1 -1 -1 -1 -1 -1 -1 -1 -0 -1 -1 -1 -1 -1 -1 -1 -2 -2
1 0 0 -1 -1 -1 -1 -1 -1 -1 -1 -1 -1 -2 -2 -2 -2 -2 -2 -2 -1 -1 -1 -1 -1 -1 -1 -1 -1 -1 -1 -1 -1 -0 -0 -1 -1 -1 -1 -2 -1 -2 -2
1 0 0 -0 -0 -1 -1 -1 -1 -1 -1 -1 -1 -1 -1 -2 -2 -2 -2 -2 -1 -1 -1 -1 -1 -1 -1 -1 -1 -1 -1 -1 -1 -0 -0 -1 -1 -1 -1 -1 -1 -2 -2
2 1 0 0 0 -0 -0 -1 -1 -1 -1 -1 -1 -1 -1 -1 -1 -1 -1 -1 -1 -1 -1 -1 -1 -1 -1 -1 -1 -1 -1 -1 -1 -1 -0 -0 -1 -1 -1 -1 -1 -2 -2
2 2 1 0 0 0 0 -0 -1 -1 -1 -1 -1 -1 -1 -0 -0 -1 -1 -1 -1 -1 -1 -1 -1 -1 -1 -1 -1 -1 -1 -1 -1 -1 -0 -1 -1 -1 -1 -1 -2 -2 -2
3 2 2 1 0 0 0 0 0 -0 -0 -0 -0 -0 -0 -0 -0 -0 -1 -1 -1 -1 -1 -1 -1 -1 -1 -1 -1 -1 -1 -0 -1 -1 -1 -1 -1 -1 -1 -1 -2 -2 -2
3 2 2 1 0 0 0 0 0 -0 -0 -0 -0 -0 -0 -0 -0 -0 -0 -0 -0 -1 -0 -1 -1 -0 -0 -0 -0 -0 -0 -1 -1 -1 -1 -1 -1 -1 -1 -2 -2 -2 -2
6 4 1 1 1 0 0 0 0 0 0 0 -0 -0 -0 0 0 0 -0 -0 -0 -0 -0 -0 0 -0 -0 -0 0 -0 -0 -0 0 -0 -1 -1 -1 -1 -1 -1 -2 -2 -2
6 6 4 1 1 1 1 1 0 0 0 0 -0 -0 -0 0 0 0 0 -0 -0 -0 -0 0 1 1 1 1 0 0 0 -0 -0 -0 -1 -1 -1 -1 -1 -1 -2 -2 -2
6 6 5 1 1 1 1 2 1 1 0 0 0 -0 -0 -0 0 0 0 0 0 -0 0 1 1 1 1 1 1 0 0 -0 -0 -0 -1 -1 -1 -2 -2 -2 -2 -2 -2
6 5 6 2 1 1 1 1 1 1 0 0 0 -0 -0 0 1 1 1 1 0 0 1 1 1 1 2 1 1 1 0 0 0 -0 -1 -1 -1 -1 -2 -2 -2 -2 -2
6 5 4 2 1 1 1 1 1 1 1 1 1 -0 -0 0 1 1 1 1 0 0 2 2 2 2 2 2 2 1 1 1 0 -0 -0 -1 -1 -1 -1 -2 -2 -2 -2
5 4 5 4 2 1 1 1 1 1 1 1 1 1 0 0 1 2 2 1 1 1 2 2 2 2 2 2 2 2 1 1 1 1 -0 -0 -1 -1 -1 -1 -2 -2 -2
4 5 5 5 3 1 1 2 2 2 1 2 2 1 1 1 1 2 2 2 1 2 2 2 2 2 2 2 2 1 1 1 1 1 1 -0 -1 -1 -1 -1 -1 -1 -2
4 5 5 5 2 2 2 3 3 2 2 2 2 1 1 1 2 2 2 2 2 2 2 2 2 2 2 1 2 2 2 1 2 1 0 -0 -0 -0 -1 -1 -1 -1 -1
5 5 5 5 2 2 2 3 3 3 2 2 2 2 1 2 2 2 2 2 3 3 2 2 2 2 2 2 3 3 5 3 2 1 1 0 0 -0 -0 -1 -1 -1 -1
6 5 5 5 2 2 2 3 4 4 4 4 3 3 2 2 2 2 2 2 3 2 2 2 2 3 3 2 2 3 6 7 4 2 2 1 1 0 -0 -0 -1 -1 -1
5 5 2 2 2 2 2 3 3 4 4 5 4 4 3 2 2 2 3 1 1 2 2 2 2 2 2 3 2 2 3 2 5 6 2 2 1 1 1 0 -0 -1 -1
6 3 3 2 2 2 3 3 4 5 5 5 5 4 4 3 1 2 2 1 2 2 2 2 1 2 2 2 3 3 3 2 2 4 6 4 2 1 1 1 -0 -0 -1
3 3 3 3 4 3 4 4 4 5 5 5 5 4 4 3 2 1 1 2 2 2 2 1 1 2 2 2 2 2 2 3 4 4 5 4 4 2 1 0 0 -0 -1

GFSSE_con_lsi_042.txt.gz
Lid_Strength_Index
0 -1 -1 -1 -1 -1 -2 -2 -1 -1 -1 -1 -1 -1 -1 -1 -1 -1 -1 -1 -2 -2 -2 -2 -2 -2 -2 -2 -2 -2 -2 -1 -1 -1 0 -0 -1 -1 -1 -1 -1 -1 -1
-0 -1 -1 -1 -1 -1 -1 -2 -1 -1 -1 -1 -1 -1 -1 -1 -1 -2 -2 -2 -2 -2 -2 -2 -2 -2 -2 -2 -2 -2 -1 -1 -1 -1 -1 -1 0 0 -0 -1 -1 -1 -1
-0 -1 -1 -1 -1 -1 -1 -1 -1 -1 -1 -1 -1 -1 -1 -2 -2 -2 -2 -2 -2 -2 -2 -2 -2 -2 -2 -1 -1 -1 -1 -1 -1 -1 -1 -1 -2 1 0 -0 -1 -1 -1
-1 -1 -1 -1 -1 -1 -1 -1 -1 -1 -1 -1 -2 -2 -2 -2 -2 -2 -2 -2 -2 -2 -2 -2 -2 -2 -2 -1 -1 -1 -1 -1 -1 -1 -2 -2 -1 -2 1 -0 -0 -1 -1
-1 -1 -2 -1 -1 -1 -1 -1 -1 -1 -1 -1 -1 -2 -2 -2 -2 -2 -2 -3 -2 -2 -2 -2 -2 -1 -1 -1 -1 -1 -1 -1 -1 -1 -2 -2 -2 -2 -1 -1 -1 -1 -1
-0 -1 -1 -1 -1 -1 -1 -1 -1 -1 -1 -2 -2 -2 -2 -2 -2 -2 -2 -2 -3 -2 -2 -2 -2 -1 -1 -1 -1 -1 -1 -1 -1 -1 -2 -2 -2 -2 -1 -1 -1 -1 -1
-0 -1 -1 -1 -1 -1 -1 -1 -1 -1 -1 -2 -2 -2 -2 -2 -2 -2 -2 -2 -2 -2 -2 -2 -2 -1 -1 -1 -1 -1 -1 -1 -1 -1 -1 -2 -2 -1 -1 -1 -1 -1 -1
-0 -1 -1 -1 -1 -1 -1 -1 -1 -1 -1 -1 -1 -2 -2 -2 -2 -2 -2 -2 -2 -2 -2 -2 -2 -1 -1 -1 -1 -1 -1 -1 -1 -1 -1 -2 -1 -1 -1 -1 -1 -1 -2
-1 -1 -1 -1 -1 -1 -1 -1 -1 -1 -1 -1 -1 -1 -1 -2 -2 -2 -2 -2 -2 -2 -2 -2 -2 -1 -1 -1 -1 -1 -1 -1 -2 -1 -1 -1 -1 -1 -1 -1 -1 -1 -1
-0 -0 -1 -1 -1 -1 -1 -1 -1 -1 -1 -1 -1 -1 -1 -1 -2 -2 -1 -2 -2 -2 -2 -2 -1 -1 -1 -1 -1 -1 -1 -1 -2 -2 -1 -2 -1 -1 -1 -1 -1 -1 -1
0 -0 -1 -1 -1 -1 -1 -1 -1 -1 -1 -1 -1 -1 -1 -2 -2 -2 -2 -2 -2 -2 -2 -1 -1 -1 -1 -1 -1 -1 -1 -1 -2 -1 -2 -1 -1 -1 -1 -1 -1 -1 -1
1 0 -0 -1 -1 -1 -1 -2 -1 -1 -1 -2 -2 -2 -2 -2 -2 -2 -2 -2 -2 -2 -1 -1 -1 -1 -1 -1 -1 -1 -1 -2 -1 -1 -2 -1 -1 -1 -1 -1 -1 -1 -1
1 0 -0 -1 -1 -1 -1 -1 -1 -1 -1 -1 -2 -2 -2 -2 -2 -2 -1 -1 -2 -1 -1 -1 -1 -1 -1 -1 -1 -1 -2 -1 -2 -2 -1 -1 -1 -1 -1 -1 -1 -1 -1
0 0 -0 -1 -0 -1 -1 -0 -1 -0 -1 -1 -1 -2 -1 -0 -1 -1 -1 -1 -1 -2 -1 -1 -1 -1 -1 -1 -1 -1 -1 -1 -1 -1 -2 -1 -1 -1 -1 -1 -1 -2 -2
1 0 -0 -1 -1 -0 -0 -0 -0 -0 -0 -1 -1 -2 -1 -1 -0 -1 -1 -1 -1 -1 -1 -1 -1 -1 -1 -1 -1 -1 -1 -1 -1 -1 -1 -1 -1 -1 -1 -1 -1 -2 -1
0 0 -0 -1 -1 -1 -0 -1 -0 -0 -1 -1 -1 -1 -1 -1 -1 -0 -0 -1 -1 -1 -1 -1 -1 -1 -1 -1 -1 -1 -1 -1 -1 -2 -1 -1 -1 -1 -1 -1 -1 -1 -1
0 -0 -0 -1 -1 -1 -1 -0 -0 -1 -1 -0 -1 -1 -1 -1 -1 -1 -0 -0 -1 -1 -1 -1 -1 -1 -0 -1 -1 -1 -1 -1 -1 -1 -1 -1 -1 -1 -1 -1 -1 -1 -1
0 0 -0 -0 -1 -1 -1 -1 -0 -1 -0 -0 -1 -1 -1 -1 -1 -1 -0 -0 -1 -1 -1 -1 -0 0 0 -0 -0 -0 -1 -1 -1 -1 -1 -1 -1 -1 -1 -2 -2 -1 -2
0 -0 -0 -1 -0 -1 -1 -1 -1 -1 -0 -1 -1 -1 -1 -1 -1 -1 -0 -1 -1 -1 -0 -0 -0 -0 0 -0 0 -0 -0 -0 -1 -1 -1 -1 -2 -1 -1 -2 -2 -2 -2
-0 -0 -0 -0 -1 -1 -1 -1 -0 -0 -0 -0 -0 -0 -1 -1 -1 -0 -0 -1 -1 -0 -0 -0 -0 -0 0 0 1 1 0 -0 -1 -1 -1 -1 -1 -1 -2 -2 -2 -2 -2
-0 -0 0 0 -0 0 0 1 1 1 1 0 -0 -1 -1 -1 -1 -0 -0 -0 -0 0 -0 -0 -0 1 1 0 1 1 1 -0 -0 -0 -0 -1 -1 -1 -1 -1 -1 -3 -1
1 0 0 0 -0 -0 0 0 0 0 0 0 -0 -0 -1 -0 -0 -0 -0 -0 -0 0 -0 -0 0 1 1 0 2 2 4 2 1 0 -0 -0 -0 -0 -0 -1 -1 -2 -2
1 1 1 -0 -0 -0 -0 0 0 0 1 1 1 1 0 -0 -0 -0 -0 -0 -0 -0 1 0 0 0 2 1 0 2 5 5 3 1 1 0 -0 -0 -1 -1 -1 -2 -2
1 0 0 -0 -0 -0 -0 0 1 2 2 1 1 1 1 -0 -0 -0 -0 -0 -0 -0 0 0 -0 0 1 2 1 1 1 1 4 5 2 1 1 0 -1 -1 -1 -2 -2
0 1 0 -0 -0 -0 -0 0 1 1 1 1 1 1 1 0 0 -0 -1 -0 -0 -0 -0 -0 -0 0 0 1 2 1 2 2 1 3 5 3 1 1 -0 -0 -1 -1 -2
1 1 0 0 0 0 1 1 1 1 1 2 2 2 2 1 0 -0 -0 -0 -1 -1 -0 -0 -0 -0 0 0 1 1 2 2 3 3 3 3 3 2 -0 -1 -0 -1 -2

GFSSE_con_lsi_045.txt.gz
Lid_Strength_Index
0 -0 -1 -1 -1 -1 -1 -1 -1 -1 -1 -1 -1 -1 -1 -1 -1 -1 -1 -1 -1 -2 -2 -2 -1 -2 -1 -1 -1 -1 -1 -1 -1 -1 -0 -1 -1 -1 -1 -1 -1 -1 -1
-0 -1 -1 -1 -1 -1 -1 -1 -1 -1 -1 -1 -1 -1 -1 -1 -1 -1 -1 -1 -2 -2 -2 -2 -2 -2 -2 -1 -1 -1 -1 -1 -1 -1 -1 -1 -1 -1 -1 -1 -1 -1 -1
-0 -1 -1 -1 -1 -1 -1 -1 -1 -1 -1 -1 -1 -1 -1 -1 -1 -1 -2 -2 -2 -2 -2 -2 -2 -2 -2 -1 -1 -1 -1 -1 -1 -1 -2 -0 -1 -1 -0 -0 -1 -1 -1
-0 -1 -1 -1 -1 -1 -1 -1 -1 -1 -1 -1 -1 -1 -1 -1 -1 -1 -2 -2 -2 -2 -2 -2 -2 -2 -2 -1 -1 -1 -1 -1 -1 -2 -1 -1 -1 -2 -1 -0 -1 -1 -1
-0 -1 -1 -1 -1 -1 -1 -1 -1 -1 -1 -1 -1 -1 -1 -1 -1 -2 -2 -2 -2 -2 -2 -2 -2 -2 -1 -1 -1 -1 -1 -1 -1 -1 -1 -1 -2 -2 -1 -1 -1 -1 -1
-0 -1 -1 -1 -1 -1 -1 -1 -1 -1 -1 -1 -1 -1 -2 -2 -2 -2 -2 -2 -2 -2 -2 -2 -2 -1 -1 -1 -1 -1 -1 -1 -1 -1 -1 -1 -2 -2 -1 -1 -1 -1 -1
-0 -1 -1 -1 -1 -1 -1 -1 -1 -1 -1 -1 -1 -1 -2 -2 -2 -2 -2 -2 -2 -2 -2 -2 -2 -1 -1 -1 -1 -1 -1 -1 -1 -1 -1 -1 -1 -2 -1 -1 -1 -1 -1
-0 -1 -1 -1 -1 -1 -1 -1 -1 -1 -1 -1 -1 -1 -2 -2 -2 -2 -2 -2 -2 -2 -2 -2 -2 -1 -1 -1 -1 -1 -1 -1 -1 -1 -1 -2 -1 -1 -1 -1 -1 -1 -1
-0 -0 -1 -1 -1 -1 -1 -1 -1 -1 -1 -1 -1 -1 -1 -2 -2 -2 -2 -2 -2 -2 -2 -2 -2 -1 -1 -1 -1 -1 -1 -1 -1 -1 -1 -1 -2 -1 -1 -1 -1 -1 -1
-0 -0 -1 -1 -1 -1 -1 -1 -1 -1 -1 -1 -1 -1 -1 -1 -1 -2 -1 -2 -2 -2 -2 -2 -2 -2 -1 -1 -1 -1 -1 -1 -1 -1 -1 -1 -2 -1 -1 -1 -1 -1 -1
0 -0 -0 -0 -1 -1 -1 -1 -1 -1 -1 -1 -1 -1 -1 -1 -2 -2 -2 -2 -2 -2 -2 -2 -1 -1 -1 -1 -1 -1 -1 -1 -1 -1 -1 -1 -1 -1 -1 -1 -1 -1 -1
1 0 -0 -1 -1 -1 -0 -1 -1 -1 -1 -1 -1 -2 -1 -2 -2 -1 -2 -2 -2 -2 -1 -1 -1 -1 -1 -1 -1 -1 -1 -1 -1 -1 -1 -1 -1 -1 -1 -1 -1 -1 -1
0 0 -0 -1 -1 -1 -0 -1 -0 -1 -1 -1 -2 -2 -2 -1 -2 -1 -1 -1 -2 -1 -1 -1 -1 -1 -1 -1 -1 -1 -1 -1 -1 -1 -1 -2 -1 -1 -1 -1 -1 -1 -1
1 0 -0 -1 -0 -1 -1 -0 -0 -0 -0 -0 -1 -2 -1 -0 -1 -1 -0 -1 -1 -1 -1 -1 -1 -1 -1 -1 -1 -1 -1 -1 -1 -1 -1 -1 -1 -1 -1 -1 -1 -1 -1
1 0 -0 -1 -0 -0 -0 -0 -0 -0 -0 -1 -1 -1 -1 -0 -0 -0 -1 -1 -1 -1 -1 -0 -1 -0 -0 -1 -1 -1 -1 -1 -1 -1 -1 -2 -1 -1 -1 -1 -1 -1 -2
0 0 -0 -1 -1 -0 -0 -0 -0 -0 -1 -1 -1 -1 -1 -0 -0 -0 -0 -0 -0 -1 -1 -0 -0 -0 -0 -1 -0 -1 -0 -1 -1 -2 -1 -1 -2 -2 -1 -1 -1 -1 -2
0 -0 -0 -1 -1 -0 -0 -0 -0 -1 -1 -0 -0 -1 -1 -1 -0 -0 -0 -0 -0 -1 -1 -1 -1 -1 -0 -0 -0 -0 -0 -1 -1 -1 -1 -1 -1 -2 -2 -1 -1 -1 -2
0 0 -0 -0 -0 -0 -1 -1 -0 -0 -0 -0 -0 -1 -1 -1 -1 -0 -0 -0 -1 -1 -0 -0 -0 0 0 0 0 -0 -0 -1 -0 -1 -1 -1 -1 -1 -1 -2 -2 -1 -1
0 0 -0 -0 -0 -1 -1 -1 -1 -1 -0 -0 -1 -0 -1 -1 -0 -0 -0 -0 -1 -0 -0 -0 0 0 1 1 0 -0 -0 -0 -0 -0 -0 -1 -1 -1 -1 -1 -2 -2 -2
0 -0 -0 -0 -0 -1 -0 -1 -0 -0 -0 -0 -0 -0 -1 -0 -0 -0 -0 -0 -0 0 0 0 0 0 1 1 1 1 1 0 -0 -0 -0 -1 -1 -1 -1 -1 -1 -1 -2
0 0 0 0 0 0 1 1 1 1 1 0 -0 -1 -1 -1 -0 -0 0 -0 -0 0 0 -0 0 1 1 0 1 2 1 1 0 0 -1 -1 -1 -0 -1 -1 -1 -2 -1
1 0 0 0 0 0 0 0 0 0 0 0 -0 -0 -1 -0 -1 0 -0 0 -0 0 0 0 1 1 1 0 2 2 4 2 1 0 -1 -0 -0 -0 -0 -0 -1 -1 -2
1 1 1 0 0 0 -0 0 0 0 0 1 1 1 0 -0 -0 -0 -0 -0 0 0 1 0 0 1 2 1 0 2 4 5 3 1 1 0 0 -0 -0 -1 -0 -1 -2
1 1 0 0 0 0 0 0 1 2 2 1 1 1 1 0 0 0 -0 0 0 0 0 0 0 1 1 2 1 1 1 1 4 5 2 1 0 0 -0 0 -0 -1 -2
1 1 0 0 1 0 0 0 1 1 1 1 1 1 1 0 0 -0 0 0 0 0 0 0 0 0 0 1 2 2 1 2 2 3 5 3 1 0 0 -0 -1 -1 -2
1 1 0 0 1 0 0 1 1 1 1 2 2 2 2 1 1 0 0 0 -0 -0 0 0 -0 -0 0 1 1 1 2 3 3 3 4 3 3 2 1 -0 -0 -0 -1

GFSSE_con_lsi_048.txt.gz
Lid_Strength_Index
1 0 -1 -1 -1 -1 -1 -1 -1 -1 -1 -1 -1 -1 -1 -1 -1 -1 -1 -1 -2 -2 -1 -1 -2 -2 -2 -2 -1 -2 -2 -2 -1 -1 -1 -1 -1 -1 -1 -1 -1 -1 -1
0 -0 -1 -1 -1 -1 -1 -1 -1 -1 -1 -1 -1 -1 -1 -1 -1 -1 -1 -2 -2 -1 -2 -1 -1 -2 -2 -1 -1 -1 -2 -1 -1 -1 -2 -1 -1 -1 -1 -1 -1 -1 -1
1 -0 -0 -1 -1 -1 -1 -1 -1 -1 -1 -1 -1 -1 -1 -1 -1 -1 -1 -2 -2 -1 -1 -1 -2 -1 -1 -1 -1 -1 -1 -1 -1 -2 -2 -0 -1 -1 -1 -1 -1 -1 -1
0 -0 -0 -1 -1 -1 -1 -1 -1 -1 -1 -1 -1 -1 -1 -1 -1 -1 -2 -2 -2 -2 -2 -1 -1 -1 -1 -1 -1 -1 -1 -1 -1 -2 -1 -0 -1 -1 -1 -1 -1 -1 -1
0 -0 -0 -1 -1 -1 -1 -1 -1 -1 -1 -1 -1 -1 -1 -1 -1 -1 -2 -2 -2 -2 -2 -2 -2 -2 -1 -1 -1 -1 -1 -1 -1 -1 -0 -0 -0 -1 -1 -1 -1 -1 -1
0 -0 -0 -1 -1 -1 -1 -1 -1 -1 -1 -1 -1 -1 -1 -1 -1 -1 -2 -2 -2 -2 -2 -2 -2 -2 -1 -1 -1 -1 -1 -1 -1 -0 -0 -0 1 -3 -2 -1 -1 -1 -1
0 -0 -0 -1 -1 -1 -1 -1 -1 -1 -1 -1 -1 -1 -1 -1 -1 -2 -2 -2 -2 -2 -2 -2 -2 -2 -2 -1 -1 -1 -1 -1 -1 -0 -0 -1 0 -1 -2 -1 -1 -1 -1
0 0 -0 -1 -1 -1 -1 -1 -1 -1 -1 -1 -1 -1 -1 -1 -1 -2 -2 -2 -2 -2 -2 -2 -2 -2 -2 -2 -1 -1 -1 -1 -1 -0 -0 -0 -1 -2 -1 -2 -1 -1 -2
0 0 0 -0 -1 -1 -1 -1 -1 -1 -1 -1 -1 -1 -1 -1 -1 -2 -2 -2 -2 -2 -2 -2 -2 -2 -2 -1 -1 -1 -1 -1 -0 -0 -0 -0 -2 -2 -1 -1 -1 -1 -2
0 0 0 -0 -0 -0 -1 -1 -1 -1 -1 -1 -1 -1 -1 -1 -1 -1 -1 -2 -2 -2 -2 -2 -2 -2 -1 -1 -1 -1 -1 -1 -0 -0 -0 -0 -2 -2 -1 -1 -1 -1 -1
1 1 0 0 -0 -0 -0 -1 -1 -1 -1 -1 -1 -1 -1 -0 -1 -1 -1 -2 -2 -2 -1 -1 -1 -1 -1 -1 -1 -1 -1 -0 -0 -0 -0 -2 -2 -1 -1 -1 -1 -1 -1
2 1 0 0 0 -0 -0 -0 -0 -1 -0 -1 -1 -1 -0 -0 -1 -1 -1 -2 -2 -2 -1 -1 -1 -1 -1 -0 -0 -1 -0 -0 0 -0 -0 -2 -2 -1 -1 -1 -1 -1 -1
1 1 1 0 0 0 0 -0 -0 -0 -0 -0 -0 -0 -0 -0 -1 -0 -0 -0 -1 -1 -0 -1 -1 -0 -0 -0 -0 -0 -0 -0 -0 -0 -1 -2 -2 -2 -1 -1 -1 -1 -2
1 1 1 0 0 0 -0 0 0 0 0 0 -0 -0 -0 0 0 0 -0 -0 -0 -0 -0 -0 -0 -0 -0 -0 -0 -0 -0 -0 -0 -0 -1 -2 -2 -2 -2 -1 -1 -1 -2
2 1 1 0 1 0 0 0 0 0 0 0 0 -0 -0 0 0 0 0 -0 -0 -0 0 0 0 0 0 0 -0 0 0 -0 -0 -0 -0 -2 -2 -2 -1 -1 -1 -1 -2
-1 -0 -1 1 1 0 1 0 0 0 0 0 0 -0 -0 -0 0 0 0 0 0 -0 -0 0 0 0 0 0 0 0 0 0 -0 -0 -0 -0 -2 -2 -1 -1 -1 -1 -1
0 -3 0 -1 1 1 1 0 0 0 0 0 0 -0 -0 -0 0 0 0 0 0 -0 0 0 0 0 1 0 1 0 0 0 0 0 -0 -0 -1 -1 -2 -2 -2 -1 -1
1 1 0 0 -1 1 1 1 0 0 0 0 0 -0 -0 -0 -0 0 1 1 -0 0 0 0 1 1 1 1 1 1 1 0 0 0 -0 -0 -0 -0 -1 -2 -2 -1 -2
1 1 1 0 0 1 1 0 0 0 0 0 0 0 -0 -0 0 0 0 0 0 0 0 1 1 1 2 1 1 1 1 1 0 0 0 0 -0 -0 -0 -1 -2 -1 -2
1 1 1 1 0 0 1 1 1 1 1 0 0 0 0 0 0 0 0 0 0 1 1 1 1 1 1 1 1 1 1 1 0 1 0 0 0 0 -0 -0 -1 -0 -2
1 1 2 1 1 1 1 2 2 2 1 1 0 0 0 0 0 0 0 0 0 1 1 1 1 2 2 1 2 2 2 1 1 1 1 0 0 0 0 -0 -0 -0 -1
2 2 2 2 1 1 1 1 1 1 1 1 0 0 0 0 0 0 1 1 1 1 1 1 1 2 2 1 3 3 5 4 2 1 1 1 1 0 0 -0 -0 -1 -0
2 2 2 2 1 1 1 1 1 1 1 1 1 1 1 0 0 0 0 1 1 1 1 1 1 2 3 2 1 3 6 7 4 2 2 1 1 1 1 0 -0 -1 -0
1 1 1 1 1 1 1 1 2 2 3 2 1 1 1 0 0 0 0 0 1 1 1 1 1 1 2 3 2 2 2 3 6 6 3 2 1 1 1 0 1 0 -0
2 2 1 1 2 1 1 1 2 2 2 1 1 1 1 1 0 0 0 0 1 1 1 1 1 1 1 2 3 3 3 3 3 5 6 5 2 2 1 1 1 0 -0
2 2 1 2 2 1 1 2 2 2 2 2 2 2 2 1 1 1 0 0 1 1 1 1 1 1 1 1 2 2 3 4 4 4 5 5 5 3 1 1 1 0 -0